User: anonymous   Login
Location: Plum
(40.5000°N, 79.7500°W)
Time: 07:32:07
(UTC-04:00)
Language:

MOZ.5/SAFIR/RUBIN 5/SL-8 - Orbit

View from above orbital plane
View from above orbital plane
View from above satellite
View from above satellite

Ground track
Ground track

The orbit data is extracted from the following two-line orbital elements,

1 28898U 05043G   15115.12584878  .00000859  00000-0  18802-3 0  9997
2 28898 097.8437 292.5854 0021006 131.9256 228.3740 14.59867323505426
Epoch (UTC): 25 April 2015 03:01:13
Eccentricity: 0.0021006
inclination: 97.8437°
perigee height: 679 km
apogee height: 708 km
right ascension of ascending node: 292.5854°
argument of perigee: 131.9256°
revolutions per day: 14.59867323
mean anomaly at epoch: 228.3740°
orbit number at epoch: 50542

The dashed part of the orbit path shows where the satellite is in the earth's shadow,  

DLR